| time (UTC) | temp F | wind direction | speed MPH | gust MPH | rain 1hr in | rain 24hr in | rain mn in | humidity % | barometer mb |
| 20260905080224 | 49 | 226 | 1.0 | 2.0 | 0.00 | 0.00 | 0.00 | 99 | 1016.1 |
| 20260905075724 | 49 | 226 | 1.0 | 2.0 | 0.00 | 0.00 | 0.00 | 99 | 1016.2 |
| 20260905075224 | 49 | 226 | 0.0 | 1.0 | 0.00 | 0.00 | 0.00 | 99 | 1016.1 |
| 20260905074725 | 49 | 226 | 1.0 | 1.0 | 0.00 | 0.00 | 0.00 | 99 | 1016.0 |
| 20260905074225 | 49 | 226 | 1.0 | 1.0 | 0.00 | 0.00 | 0.00 | 99 | 1016.0 |
| 20260905073724 | 49 | 226 | 1.0 | 1.0 | 0.00 | 0.00 | 0.00 | 99 | 1016.0 |
| 20260905073226 | 49 | 226 | 0.0 | 1.0 | 0.00 | 0.00 | 0.00 | 99 | 1015.9 |
| 20260905072725 | 50 | 226 | 1.0 | 1.0 | 0.00 | 0.00 | 0.00 | 99 | 1015.8 |
| 20260905072225 | 50 | 226 | 0.0 | 0.0 | 0.00 | 0.00 | 0.00 | 99 | 1015.7 |
| 20260905071629 | 50 | 226 | 0.0 | 1.0 | 0.00 | 0.00 | 0.00 | 99 | 1015.7 |
| 20260905070925 | 50 | 226 | 1.0 | 1.0 | 0.00 | 0.00 | 0.00 | 99 | 1015.7 |
| 20260905070425 | 50 | 226 | 0.0 | 1.0 | 0.00 | 0.00 | 0.00 | 99 | 1015.7 |
| 20260905065725 | 50 | 226 | 0.0 | 1.0 | 0.00 | 0.00 | 0.11 | 99 | 1015.8 |
| 20260905065225 | 50 | 226 | 1.0 | 2.0 | 0.00 | 0.00 | 0.11 | 99 | 1015.7 |
| 20260905064724 | 50 | 226 | 1.0 | 2.0 | 0.00 | 0.00 | 0.11 | 99 | 1015.7 |
| 20260905064225 | 50 | 225 | 2.0 | 2.0 | 0.00 | 0.00 | 0.11 | 99 | 1015.7 |
| 20260905063724 | 50 | 225 | 2.0 | 2.0 | 0.00 | 0.00 | 0.11 | 99 | 1015.7 |
| 20260905063225 | 50 | 225 | 1.0 | 1.0 | 0.00 | 0.00 | 0.11 | 98 | 1015.7 |
| 20260905062524 | 50 | 225 | 1.0 | 1.0 | 0.00 | 0.00 | 0.11 | 99 | 1015.7 |
| 20260905062025 | 50 | 225 | 1.0 | 1.0 | 0.00 | 0.00 | 0.11 | 98 | 1015.6 |
| 20260905061525 | 51 | 225 | 1.0 | 1.0 | 0.00 | 0.00 | 0.11 | 98 | 1015.7 |
| 20260905061024 | 51 | 225 | 0.0 | 0.0 | 0.00 | 0.00 | 0.11 | 99 | 1015.7 |
| 20260905060324 | 51 | 225 | 0.0 | 1.0 | 0.00 | 0.00 | 0.11 | 99 | 1015.7 |
| 20260905055824 | 51 | 225 | 0.0 | 1.0 | 0.00 | 0.00 | 0.11 | 99 | 1015.7 |
| 20260905055324 | 51 | 225 | 0.0 | 1.0 | 0.00 | 0.00 | 0.11 | 98 | 1015.7 |
| 20260905054824 | 51 | 225 | 1.0 | 1.0 | 0.00 | 0.00 | 0.11 | 99 | 1015.6 |
| 20260905054324 | 52 | 225 | 0.0 | 1.0 | 0.00 | 0.00 | 0.11 | 98 | 1015.6 |
| 20260905053824 | 52 | 225 | 0.0 | 1.0 | 0.00 | 0.00 | 0.11 | 98 | 1015.7 |
| 20260905053324 | 52 | 225 | 1.0 | 2.0 | 0.00 | 0.00 | 0.11 | 99 | 1015.7 |
| 20260905052824 | 52 | 225 | 1.0 | 2.0 | 0.00 | 0.00 | 0.11 | 99 | 1015.7 |
| 20260905052324 | 52 | 225 | 2.0 | 2.0 | 0.00 | 0.00 | 0.11 | 99 | 1015.7 |
| 20260905051824 | 52 | 225 | 0.0 | 2.0 | 0.00 | 0.00 | 0.11 | 99 | 1015.6 |
| 20260905051324 | 52 | 225 | 1.0 | 2.0 | 0.00 | 0.00 | 0.11 | 99 | 1015.7 |
| 20260905050825 | 52 | 225 | 2.0 | 2.0 | 0.00 | 0.00 | 0.11 | 99 | 1015.7 |
| 20260905050324 | 52 | 225 | 1.0 | 1.0 | 0.00 | 0.00 | 0.11 | 99 | 1015.6 |
| 20260905045824 | 52 | 225 | 0.0 | 1.0 | 0.00 | 0.00 | 0.11 | 99 | 1015.5 |
| 20260905045125 | 52 | 225 | 0.0 | 1.0 | 0.00 | 0.00 | 0.11 | 98 | 1015.3 |
| 20260905044624 | 52 | 225 | 1.0 | 2.0 | 0.00 | 0.00 | 0.11 | 98 | 1015.3 |
| 20260905043525 | 52 | 225 | 1.0 | 1.0 | 0.00 | 0.00 | 0.11 | 98 | 1015.3 |
| 20260905043024 | 52 | 225 | 0.0 | 1.0 | 0.00 | 0.00 | 0.11 | 98 | 1015.2 |
| 20260905042525 | 51 | 225 | 1.0 | 1.0 | 0.00 | 0.00 | 0.11 | 98 | 1015.2 |
| 20260905042024 | 51 | 225 | 0.0 | 1.0 | 0.00 | 0.00 | 0.11 | 97 | 1015.2 |
| 20260905041324 | 51 | 225 | 0.0 | 2.0 | 0.00 | 0.00 | 0.11 | 97 | 1015.2 |
| 20260905040624 | 52 | 225 | 1.0 | 2.0 | 0.00 | 0.00 | 0.11 | 97 | 1015.2 |
| 20260905040124 | 52 | 225 | 1.0 | 1.0 | 0.00 | 0.00 | 0.11 | 97 | 1015.2 |
| 20260905035624 | 52 | 225 | 0.0 | 1.0 | 0.00 | 0.00 | 0.11 | 97 | 1015.2 |
| 20260905035125 | 52 | 225 | 0.0 | 2.0 | 0.00 | 0.00 | 0.11 | 97 | 1015.1 |
| 20260905034624 | 53 | 225 | 0.0 | 2.0 | 0.00 | 0.00 | 0.11 | 97 | 1014.9 |
| 20260905033924 | 53 | 225 | 2.0 | 2.0 | 0.00 | 0.00 | 0.11 | 96 | 1015.0 |
| 20260905033424 | 53 | 225 | 0.0 | 2.0 | 0.00 | 0.00 | 0.11 | 96 | 1014.9 |
| 20260905032925 | 54 | 225 | 2.0 | 2.0 | 0.00 | 0.00 | 0.11 | 97 | 1014.8 |
| 20260905032425 | 54 | 225 | 1.0 | 2.0 | 0.00 | 0.00 | 0.11 | 96 | 1014.8 |
| 20260905031925 | 54 | 225 | 2.0 | 2.0 | 0.00 | 0.00 | 0.11 | 96 | 1014.8 |
| 20260905031425 | 55 | 225 | 0.0 | 2.0 | 0.00 | 0.00 | 0.11 | 96 | 1014.7 |
| 20260905030924 | 55 | 225 | 1.0 | 2.0 | 0.00 | 0.00 | 0.11 | 96 | 1014.6 |
| 20260905030424 | 55 | 225 | 2.0 | 2.0 | 0.00 | 0.00 | 0.11 | 96 | 1014.5 |
| 20260905025925 | 55 | 225 | 1.0 | 1.0 | 0.00 | 0.00 | 0.11 | 96 | 1014.4 |
| 20260905025425 | 55 | 225 | 0.0 | 0.0 | 0.00 | 0.00 | 0.11 | 95 | 1014.4 |
| 20260905024925 | 56 | 225 | 0.0 | 1.0 | 0.00 | 0.00 | 0.11 | 95 | 1014.4 |
| 20260905024424 | 56 | 225 | 0.0 | 1.0 | 0.00 | 0.00 | 0.11 | 95 | 1014.4 |
| 20260905023924 | 56 | 225 | 0.0 | 1.0 | 0.00 | 0.00 | 0.11 | 94 | 1014.3 |
| 20260905023425 | 57 | 225 | 1.0 | 2.0 | 0.00 | 0.00 | 0.11 | 94 | 1014.3 |
| 20260905022725 | 58 | 225 | 0.0 | 2.0 | 0.00 | 0.00 | 0.11 | 93 | 1014.3 |
| 20260905022224 | 58 | 225 | 2.0 | 2.0 | 0.00 | 0.00 | 0.11 | 93 | 1014.2 |
| 20260905021724 | 59 | 225 | 0.0 | 1.0 | 0.00 | 0.00 | 0.11 | 93 | 1014.3 |
| 20260905021025 | 60 | 225 | 0.0 | 1.0 | 0.00 | 0.00 | 0.11 | 92 | 1014.3 |
| 20260905020524 | 60 | 225 | 0.0 | 1.0 | 0.00 | 0.00 | 0.11 | 92 | 1014.2 |
| 20260905020025 | 61 | 225 | 1.0 | 1.0 | 0.00 | 0.00 | 0.11 | 92 | 1014.1 |
| 20260905015324 | 61 | 225 | 1.0 | 2.0 | 0.00 | 0.00 | 0.11 | 91 | 1014.0 |
| 20260905014224 | 62 | 225 | 1.0 | 2.0 | 0.00 | 0.00 | 0.11 | 90 | 1014.1 |
| 20260905013725 | 62 | 225 | 0.0 | 3.0 | 0.00 | 0.00 | 0.11 | 90 | 1014.1 |
| 20260905013225 | 63 | 225 | 2.0 | 3.0 | 0.00 | 0.00 | 0.11 | 90 | 1013.9 |
| 20260905012724 | 62 | 249 | 1.0 | 1.0 | 0.00 | 0.00 | 0.11 | 92 | 1014.0 |
| 20260905012125 | 61 | 249 | 1.0 | 3.0 | 0.00 | 0.00 | 0.11 | 94 | 1014.0 |
| 20260905011424 | 61 | 249 | 1.0 | 3.0 | 0.00 | 0.00 | 0.11 | 95 | 1014.0 |
| 20260905010924 | 60 | 252 | 1.0 | 3.0 | 0.00 | 0.00 | 0.11 | 95 | 1014.0 |
| 20260905010424 | 60 | 260 | 1.0 | 2.0 | 0.00 | 0.00 | 0.11 | 96 | 1014.0 |
| 20260905005924 | 60 | 260 | 2.0 | 2.0 | 0.00 | 0.00 | 0.11 | 96 | 1013.9 |
| 20260905005424 | 59 | 21 | 1.0 | 1.0 | 0.00 | 0.00 | 0.11 | 96 | 1013.9 |
| 20260905004724 | 59 | 21 | 1.0 | 1.0 | 0.00 | 0.00 | 0.11 | 96 | 1013.9 |
| 20260905004224 | 58 | 21 | 1.0 | 1.0 | 0.00 | 0.00 | 0.11 | 97 | 1013.9 |
| 20260905003725 | 58 | 21 | 1.0 | 4.0 | 0.00 | 0.00 | 0.11 | 96 | 1013.9 |
| 20260905003224 | 58 | 23 | 1.0 | 4.0 | 0.00 | 0.00 | 0.11 | 97 | 1013.9 |
| 20260905002724 | 58 | 9 | 4.0 | 4.0 | 0.00 | 0.00 | 0.11 | 96 | 1013.9 |
| 20260905002224 | 58 | 237 | 1.0 | 2.0 | 0.00 | 0.00 | 0.11 | 96 | 1013.9 |
| 20260905001724 | 58 | 237 | 2.0 | 2.0 | 0.00 | 0.00 | 0.11 | 95 | 1013.8 |
| 20260905001224 | 58 | 234 | 1.0 | 3.0 | 0.00 | 0.00 | 0.11 | 95 | 1013.7 |
| 20260905000725 | 58 | 234 | 2.0 | 3.0 | 0.00 | 0.00 | 0.11 | 94 | 1013.7 |
| 20260905000226 | 58 | 254 | 1.0 | 2.0 | 0.00 | 0.00 | 0.11 | 94 | 1013.7 |
| 20260904235724 | 58 | 12 | 1.0 | 2.0 | 0.00 | 0.00 | 0.11 | 93 | 1013.7 |
| 20260904235224 | 58 | 12 | 0.0 | 2.0 | 0.00 | 0.00 | 0.11 | 93 | 1013.7 |
| 20260904234525 | 59 | 12 | 2.0 | 3.0 | 0.00 | 0.00 | 0.11 | 91 | 1013.6 |
| 20260904234025 | 59 | 13 | 1.0 | 3.0 | 0.00 | 0.00 | 0.11 | 90 | 1013.5 |
| 20260904233524 | 59 | 248 | 1.0 | 3.0 | 0.00 | 0.00 | 0.11 | 88 | 1013.5 |
| 20260904233025 | 60 | 281 | 2.0 | 4.0 | 0.00 | 0.00 | 0.10 | 87 | 1013.5 |
| 20260904232524 | 61 | 321 | 2.0 | 4.0 | 0.00 | 0.00 | 0.05 | 84 | 1013.5 |
| 20260904232024 | 61 | 213 | 0.0 | 4.0 | 0.00 | 0.00 | 0.04 | 89 | 1013.3 |
| 20260904231524 | 61 | 213 | 1.0 | 4.0 | 0.00 | 0.00 | 0.04 | 88 | 1013.3 |
| 20260904231024 | 61 | 263 | 4.0 | 4.0 | 0.00 | 0.00 | 0.04 | 85 | 1013.2 |
| 20260904230524 | 61 | 178 | 0.0 | 2.0 | 0.00 | 0.00 | 0.04 | 87 | 1013.2 |
| 20260904230024 | 61 | 178 | 1.0 | 2.0 | 0.00 | 0.00 | 0.04 | 87 | 1013.1 |
| 20260904225324 | 62 | 177 | 0.0 | 2.0 | 0.00 | 0.00 | 0.04 | 82 | 1013.0 |
| 20260904224824 | 64 | 117 | 0.0 | 8.0 | 0.00 | 0.00 | 0.04 | 77 | 1013.1 |
| 20260904224324 | 65 | 116 | 2.0 | 8.0 | 0.00 | 0.00 | 0.03 | 76 | 1013.1 |
| 20260904223024 | 66 | 360 | 0.0 | 2.0 | 0.00 | 0.00 | 0.00 | 79 | 1012.8 |
| 20260904222524 | 66 | 360 | 1.0 | 2.0 | 0.00 | 0.00 | 0.00 | 77 | 1012.7 |
| 20260904222024 | 66 | 38 | 2.0 | 2.0 | 0.00 | 0.00 | 0.00 | 74 | 1012.8 |
| 20260904221524 | 66 | 360 | 0.0 | 2.0 | 0.00 | 0.00 | 0.00 | 73 | 1012.7 |
| 20260904221024 | 66 | 32 | 1.0 | 5.0 | 0.00 | 0.00 | 0.00 | 69 | 1012.7 |
| 20260904220524 | 66 | 355 | 2.0 | 5.0 | 0.00 | 0.00 | 0.00 | 66 | 1012.7 |
| 20260904220025 | 67 | 26 | 5.0 | 5.0 | 0.00 | 0.00 | 0.00 | 67 | 1012.7 |
| 20260904215524 | 67 | 77 | 3.0 | 5.0 | 0.00 | 0.00 | 0.00 | 69 | 1012.7 |
| 20260904214825 | 67 | 41 | 5.0 | 5.0 | 0.00 | 0.00 | 0.00 | 67 | 1012.7 |
| 20260904214325 | 67 | 13 | 5.0 | 5.0 | 0.00 | 0.00 | 0.00 | 65 | 1012.7 |
| 20260904213824 | 67 | 360 | 2.0 | 3.0 | 0.00 | 0.00 | 0.00 | 69 | 1012.7 |
| 20260904213324 | 66 | 85 | 2.0 | 3.0 | 0.00 | 0.00 | 0.00 | 68 | 1012.7 |
| 20260904212824 | 66 | 360 | 2.0 | 3.0 | 0.00 | 0.00 | 0.00 | 68 | 1012.7 |
| 20260904212324 | 66 | 109 | 0.0 | 2.0 | 0.00 | 0.00 | 0.00 | 72 | 1012.6 |
| 20260904211824 | 66 | 53 | 2.0 | 3.0 | 0.00 | 0.00 | 0.00 | 69 | 1012.6 |
| 20260904211324 | 65 | 142 | 0.0 | 5.0 | 0.00 | 0.00 | 0.00 | 70 | 1012.6 |
| 20260904210825 | 65 | 140 | 1.0 | 5.0 | 0.00 | 0.00 | 0.00 | 71 | 1012.6 |
| 20260904210324 | 65 | 51 | 3.0 | 3.0 | 0.00 | 0.00 | 0.00 | 68 | 1012.6 |
| 20260904205824 | 65 | 302 | 1.0 | 4.0 | 0.00 | 0.00 | 0.00 | 67 | 1012.6 |
| 20260904205324 | 65 | 319 | 2.0 | 5.0 | 0.00 | 0.00 | 0.00 | 66 | 1012.6 |
| 20260904204825 | 65 | 12 | 3.0 | 5.0 | 0.00 | 0.00 | 0.00 | 69 | 1012.5 |
| 20260904203925 | 65 | 339 | 3.0 | 8.0 | 0.00 | 0.00 | 0.00 | 69 | 1012.5 |
| 20260904203425 | 65 | 360 | 4.0 | 8.0 | 0.00 | 0.00 | 0.00 | 69 | 1012.4 |
| 20260904202925 | 66 | 360 | 8.0 | 8.0 | 0.00 | 0.00 | 0.00 | 69 | 1012.4 |
| 20260904202425 | 65 | 309 | 5.0 | 5.0 | 0.00 | 0.00 | 0.00 | 69 | 1012.3 |
| 20260904201924 | 64 | 5 | 2.0 | 5.0 | 0.00 | 0.00 | 0.00 | 71 | 1012.3 |
| 20260904201424 | 64 | 351 | 3.0 | 3.0 | 0.00 | 0.00 | 0.00 | 72 | 1012.5 |
| 20260904200924 | 64 | 59 | 3.0 | 9.0 | 0.00 | 0.00 | 0.00 | 74 | 1012.5 |
| 20260904200224 | 64 | 24 | 5.0 | 9.0 | 0.00 | 0.00 | 0.00 | 71 | 1012.5 |
| 20260904195724 | 64 | 9 | 7.0 | 7.0 | 0.00 | 0.00 | 0.00 | 70 | 1012.5 |
| 20260904195224 | 64 | 49 | 4.0 | 9.0 | 0.00 | 0.00 | 0.00 | 71 | 1012.5 |
| 20260904194724 | 64 | 76 | 3.0 | 9.0 | 0.00 | 0.00 | 0.00 | 70 | 1012.7 |
| 20260904194224 | 64 | 21 | 9.0 | 9.0 | 0.00 | 0.00 | 0.00 | 71 | 1012.7 |
| 20260904193724 | 64 | 287 | 2.0 | 7.0 | 0.00 | 0.00 | 0.00 | 71 | 1012.7 |
| 20260904193225 | 64 | 9 | 5.0 | 7.0 | 0.00 | 0.00 | 0.00 | 71 | 1012.7 |
| 20260904192725 | 64 | 26 | 6.0 | 9.0 | 0.00 | 0.00 | 0.00 | 73 | 1012.7 |
| 20260904192225 | 64 | 32 | 5.0 | 9.0 | 0.00 | 0.00 | 0.00 | 72 | 1012.7 |
| 20260904191724 | 64 | 28 | 4.0 | 8.0 | 0.00 | 0.00 | 0.00 | 74 | 1012.7 |
| 20260904191224 | 63 | 360 | 4.0 | 9.0 | 0.00 | 0.00 | 0.00 | 74 | 1012.6 |
| 20260904190724 | 64 | 325 | 5.0 | 9.0 | 0.00 | 0.00 | 0.00 | 73 | 1012.7 |
| 20260904190224 | 63 | 78 | 4.0 | 10.0 | 0.00 | 0.00 | 0.00 | 75 | 1012.7 |
| 20260904185725 | 62 | 19 | 2.0 | 10.0 | 0.00 | 0.00 | 0.00 | 77 | 1012.7 |
| 20260904185224 | 62 | 5 | 10.0 | 10.0 | 0.00 | 0.00 | 0.00 | 76 | 1012.7 |
| 20260904184724 | 63 | 15 | 3.0 | 6.0 | 0.00 | 0.00 | 0.00 | 75 | 1012.8 |
| 20260904184024 | 63 | 68 | 3.0 | 11.0 | 0.00 | 0.00 | 0.00 | 75 | 1012.8 |
| 20260904183525 | 62 | 46 | 5.0 | 11.0 | 0.00 | 0.00 | 0.00 | 75 | 1012.8 |
| 20260904183024 | 62 | 33 | 6.0 | 6.0 | 0.00 | 0.00 | 0.00 | 76 | 1012.8 |
| 20260904182324 | 62 | 333 | 3.0 | 4.0 | 0.00 | 0.00 | 0.00 | 81 | 1012.8 |
| 20260904181624 | 61 | 360 | 4.0 | 7.0 | 0.00 | 0.00 | 0.00 | 83 | 1012.7 |
| 20260904181124 | 61 | 10 | 2.0 | 7.0 | 0.00 | 0.00 | 0.00 | 82 | 1012.7 |
| 20260904180625 | 61 | 28 | 5.0 | 5.0 | 0.00 | 0.00 | 0.00 | 82 | 1012.7 |
| 20260904180124 | 61 | 49 | 2.0 | 7.0 | 0.00 | 0.00 | 0.00 | 83 | 1012.6 |
| 20260904175624 | 62 | 34 | 5.0 | 7.0 | 0.00 | 0.00 | 0.00 | 83 | 1012.6 |
| 20260904175124 | 61 | 345 | 2.0 | 9.0 | 0.00 | 0.00 | 0.00 | 88 | 1012.6 |
| 20260904174624 | 60 | 284 | 1.0 | 9.0 | 0.00 | 0.00 | 0.00 | 89 | 1012.6 |
| 20260904174125 | 59 | 38 | 1.0 | 3.0 | 0.00 | 0.00 | 0.00 | 95 | 1012.5 |
| 20260904173625 | 58 | 305 | 1.0 | 3.0 | 0.00 | 0.00 | 0.00 | 94 | 1012.6 |
| 20260904172924 | 57 | 181 | 1.0 | 2.0 | 0.00 | 0.00 | 0.00 | 97 | 1012.6 |
| 20260904172424 | 56 | 181 | 1.0 | 1.0 | 0.00 | 0.00 | 0.00 | 99 | 1012.6 |
| 20260904171925 | 55 | 165 | 0.0 | 3.0 | 0.00 | 0.00 | 0.00 | 99 | 1012.6 |
| 20260904171426 | 55 | 167 | 1.0 | 3.0 | 0.00 | 0.00 | 0.00 | 100 | 1012.5 |
| 20260904170924 | 55 | 167 | 0.0 | 3.0 | 0.00 | 0.00 | 0.00 | 100 | 1012.5 |
| 20260904170425 | 55 | 167 | 3.0 | 3.0 | 0.00 | 0.00 | 0.00 | 100 | 1012.5 |
| 20260904165925 | 55 | 167 | 3.0 | 3.0 | 0.00 | 0.00 | 0.00 | 100 | 1012.4 |
| 20260904165424 | 54 | 167 | 1.0 | 1.0 | 0.00 | 0.00 | 0.00 | 100 | 1012.4 |
| 20260904164725 | 54 | 167 | 0.0 | 0.0 | 0.00 | 0.00 | 0.00 | 100 | 1012.4 |
| 20260904164024 | 53 | 167 | 0.0 | 1.0 | 0.00 | 0.00 | 0.00 | 100 | 1012.4 |
| 20260904163525 | 53 | 167 | 0.0 | 3.0 | 0.00 | 0.00 | 0.00 | 100 | 1012.4 |
| 20260904163025 | 53 | 167 | 1.0 | 3.0 | 0.00 | 0.00 | 0.00 | 100 | 1012.5 |
| 20260904162324 | 52 | 167 | 0.0 | 1.0 | 0.00 | 0.00 | 0.00 | 100 | 1012.5 |
| 20260904161824 | 52 | 167 | 0.0 | 1.0 | 0.00 | 0.00 | 0.00 | 100 | 1012.4 |
| 20260904161124 | 52 | 167 | 1.0 | 1.0 | 0.00 | 0.00 | 0.00 | 100 | 1012.4 |
| 20260904160625 | 52 | 167 | 0.0 | 1.0 | 0.00 | 0.00 | 0.00 | 100 | 1012.4 |
| 20260904155725 | 51 | 360 | 1.0 | 2.0 | 0.00 | 0.00 | 0.00 | 100 | 1012.4 |
| 20260904155225 | 51 | 360 | 2.0 | 2.0 | 0.00 | 0.00 | 0.00 | 100 | 1012.4 |
| 20260904154724 | 50 | 360 | 1.0 | 2.0 | 0.00 | 0.00 | 0.00 | 100 | 1012.4 |
| 20260904154024 | 50 | 360 | 1.0 | 2.0 | 0.00 | 0.00 | 0.00 | 100 | 1012.3 |
| 20260904153125 | 50 | 360 | 0.0 | 2.0 | 0.00 | 0.00 | 0.00 | 100 | 1012.2 |
| 20260904152224 | 49 | 360 | 0.0 | 1.0 | 0.00 | 0.00 | 0.00 | 100 | 1012.1 |
| 20260904151725 | 49 | 360 | 0.0 | 1.0 | 0.00 | 0.00 | 0.00 | 100 | 1012.1 |
| 20260904151024 | 48 | 360 | 1.0 | 1.0 | 0.00 | 0.00 | 0.00 | 100 | 1012.1 |
| 20260904150524 | 48 | 360 | 0.0 | 1.0 | 0.00 | 0.00 | 0.00 | 100 | 1012.0 |
| 20260904150025 | 48 | 360 | 0.0 | 1.0 | 0.00 | 0.00 | 0.00 | 100 | 1012.0 |
| 20260904145524 | 48 | 360 | 0.0 | 0.0 | 0.00 | 0.00 | 0.00 | 100 | 1012.0 |
| 20260904145024 | 48 | 360 | 0.0 | 1.0 | 0.00 | 0.00 | 0.00 | 100 | 1011.9 |
| 20260904144524 | 47 | 360 | 0.0 | 1.0 | 0.00 | 0.00 | 0.00 | 100 | 1011.9 |
| 20260904144024 | 47 | 360 | 0.0 | 0.0 | 0.00 | 0.00 | 0.00 | 100 | 1011.8 |
| 20260904143524 | 47 | 360 | 0.0 | 1.0 | 0.00 | 0.00 | 0.00 | 100 | 1011.8 |
| 20260904143024 | 47 | 360 | 0.0 | 1.0 | 0.00 | 0.00 | 0.00 | 100 | 1011.7 |
| 20260904142524 | 47 | 360 | 0.0 | 1.0 | 0.00 | 0.00 | 0.00 | 100 | 1011.7 |
| 20260904142024 | 47 | 360 | 1.0 | 1.0 | 0.00 | 0.00 | 0.00 | 100 | 1011.6 |
| 20260904141524 | 47 | 59 | 0.0 | 0.0 | 0.00 | 0.00 | 0.00 | 100 | 1011.6 |
| 20260904141024 | 47 | 60 | 0.0 | 0.0 | 0.00 | 0.00 | 0.00 | 100 | 1011.5 |
| 20260904140525 | 46 | 360 | 0.0 | 0.0 | 0.00 | 0.00 | 0.00 | 100 | 1011.5 |
| 20260904135824 | 46 | 360 | 0.0 | 0.0 | 0.00 | 0.00 | 0.00 | 100 | 1011.5 |
| 20260904135324 | 46 | 360 | 0.0 | 0.0 | 0.00 | 0.00 | 0.00 | 100 | 1011.5 |
| 20260904134824 | 46 | 360 | 0.0 | 0.0 | 0.00 | 0.00 | 0.00 | 99 | 1011.4 |
| 20260904134324 | 46 | 360 | 0.0 | 0.0 | 0.00 | 0.00 | 0.00 | 99 | 1011.4 |
| 20260904133824 | 46 | 360 | 0.0 | 0.0 | 0.00 | 0.00 | 0.00 | 99 | 1011.4 |
| 20260904133325 | 46 | 360 | 0.0 | 0.0 | 0.00 | 0.00 | 0.00 | 99 | 1011.4 |
| 20260904132825 | 46 | 360 | 0.0 | 0.0 | 0.00 | 0.00 | 0.00 | 99 | 1011.3 |
| 20260904132325 | 46 | 360 | 0.0 | 0.0 | 0.00 | 0.00 | 0.00 | 99 | 1011.3 |
| 20260904131824 | 46 | 360 | 0.0 | 0.0 | 0.00 | 0.00 | 0.00 | 99 | 1011.2 |
| 20260904131324 | 46 | 61 | 0.0 | 1.0 | 0.00 | 0.00 | 0.00 | 99 | 1011.2 |
| 20260904130824 | 46 | 61 | 0.0 | 1.0 | 0.00 | 0.00 | 0.00 | 99 | 1011.2 |
| 20260904130325 | 46 | 60 | 0.0 | 1.0 | 0.00 | 0.00 | 0.00 | 99 | 1011.1 |
| 20260904125824 | 46 | 59 | 1.0 | 1.0 | 0.00 | 0.00 | 0.00 | 99 | 1011.1 |
| 20260904125324 | 46 | 60 | 0.0 | 1.0 | 0.00 | 0.00 | 0.00 | 99 | 1011.0 |
| 20260904124825 | 46 | 60 | 1.0 | 1.0 | 0.00 | 0.00 | 0.00 | 99 | 1011.0 |
| 20260904124324 | 46 | 60 | 0.0 | 2.0 | 0.00 | 0.00 | 0.00 | 99 | 1011.0 |
| 20260904123824 | 46 | 60 | 1.0 | 2.0 | 0.00 | 0.00 | 0.00 | 99 | 1010.9 |
| 20260904123324 | 46 | 59 | 1.0 | 2.0 | 0.00 | 0.00 | 0.00 | 99 | 1010.9 |
| 20260904122824 | 46 | 59 | 1.0 | 2.0 | 0.00 | 0.00 | 0.00 | 99 | 1010.8 |
| 20260904122124 | 46 | 59 | 1.0 | 2.0 | 0.00 | 0.00 | 0.00 | 99 | 1010.8 |
| 20260904121624 | 46 | 59 | 0.0 | 2.0 | 0.00 | 0.00 | 0.00 | 99 | 1010.8 |
| 20260904121124 | 46 | 59 | 2.0 | 2.0 | 0.00 | 0.00 | 0.00 | 99 | 1010.7 |
| 20260904120624 | 46 | 360 | 1.0 | 2.0 | 0.00 | 0.00 | 0.00 | 99 | 1010.6 |
| 20260904120125 | 46 | 60 | 1.0 | 1.0 | 0.00 | 0.00 | 0.00 | 99 | 1010.6 |
| 20260904115624 | 46 | 360 | 0.0 | 1.0 | 0.00 | 0.00 | 0.00 | 99 | 1010.6 |
| 20260904115125 | 47 | 360 | 1.0 | 1.0 | 0.00 | 0.00 | 0.00 | 99 | 1010.7 |
| 20260904114625 | 47 | 360 | 0.0 | 0.0 | 0.00 | 0.00 | 0.00 | 99 | 1010.5 |
| 20260904114124 | 47 | 360 | 0.0 | 1.0 | 0.00 | 0.00 | 0.00 | 99 | 1010.6 |
| 20260904113624 | 47 | 360 | 0.0 | 1.0 | 0.00 | 0.00 | 0.00 | 99 | 1010.4 |
| 20260904112925 | 47 | 360 | 0.0 | 1.0 | 0.00 | 0.00 | 0.00 | 99 | 1010.3 |
| 20260904112424 | 47 | 360 | 0.0 | 0.0 | 0.00 | 0.00 | 0.00 | 99 | 1010.3 |
| 20260904111924 | 47 | 360 | 0.0 | 0.0 | 0.00 | 0.00 | 0.00 | 99 | 1010.3 |
| 20260904111424 | 47 | 360 | 0.0 | 0.0 | 0.00 | 0.00 | 0.00 | 99 | 1010.3 |
| 20260904110925 | 47 | 360 | 0.0 | 0.0 | 0.00 | 0.00 | 0.00 | 99 | 1010.3 |
| 20260904110025 | 47 | 360 | 0.0 | 0.0 | 0.00 | 0.00 | 0.00 | 99 | 1010.3 |
| 20260904105525 | 47 | 360 | 0.0 | 1.0 | 0.00 | 0.00 | 0.00 | 99 | 1010.3 |
| 20260904105025 | 47 | 360 | 0.0 | 1.0 | 0.00 | 0.00 | 0.00 | 99 | 1010.3 |
| 20260904104325 | 47 | 360 | 0.0 | 1.0 | 0.00 | 0.00 | 0.00 | 99 | 1010.4 |
| 20260904103825 | 47 | 360 | 0.0 | 0.0 | 0.00 | 0.00 | 0.00 | 99 | 1010.3 |
| 20260904103325 | 47 | 360 | 0.0 | 0.0 | 0.00 | 0.00 | 0.00 | 99 | 1010.2 |
| 20260904102425 | 47 | 360 | 0.0 | 0.0 | 0.00 | 0.00 | 0.00 | 99 | 1010.1 |
| 20260904101724 | 47 | 360 | 0.0 | 0.0 | 0.00 | 0.00 | 0.00 | 99 | 1010.2 |
| 20260904101224 | 47 | 360 | 0.0 | 0.0 | 0.00 | 0.00 | 0.00 | 99 | 1010.2 |
| 20260904100324 | 47 | 360 | 0.0 | 0.0 | 0.00 | 0.00 | 0.00 | 99 | 1010.2 |
| 20260904095825 | 47 | 360 | 0.0 | 0.0 | 0.00 | 0.00 | 0.00 | 99 | 1010.3 |
| 20260904095324 | 48 | 360 | 0.0 | 0.0 | 0.00 | 0.00 | 0.00 | 99 | 1010.3 |
| 20260904094825 | 48 | 360 | 0.0 | 0.0 | 0.00 | 0.00 | 0.00 | 99 | 1010.2 |
| 20260904094324 | 48 | 360 | 0.0 | 0.0 | 0.00 | 0.00 | 0.00 | 99 | 1010.2 |
| 20260904093824 | 48 | 360 | 0.0 | 0.0 | 0.00 | 0.00 | 0.00 | 99 | 1010.2 |
| 20260904093124 | 48 | 360 | 0.0 | 0.0 | 0.00 | 0.00 | 0.00 | 99 | 1010.3 |
| 20260904092625 | 47 | 360 | 0.0 | 0.0 | 0.00 | 0.00 | 0.00 | 99 | 1010.2 |
| 20260904092124 | 47 | 360 | 0.0 | 1.0 | 0.00 | 0.00 | 0.00 | 99 | 1010.2 |
| 20260904091625 | 47 | 360 | 0.0 | 1.0 | 0.00 | 0.00 | 0.00 | 99 | 1010.2 |
| 20260904090925 | 47 | 61 | 0.0 | 0.0 | 0.00 | 0.00 | 0.00 | 99 | 1010.1 |
| 20260904090425 | 47 | 360 | 0.0 | 0.0 | 0.00 | 0.00 | 0.00 | 99 | 1010.2 |
| 20260904085925 | 47 | 360 | 0.0 | 0.0 | 0.00 | 0.00 | 0.00 | 99 | 1010.2 |
| 20260904085424 | 47 | 360 | 0.0 | 0.0 | 0.00 | 0.00 | 0.00 | 99 | 1010.2 |
| 20260904084724 | 47 | 360 | 0.0 | 1.0 | 0.00 | 0.00 | 0.00 | 99 | 1010.2 |
| 20260904084224 | 46 | 360 | 0.0 | 1.0 | 0.00 | 0.00 | 0.00 | 99 | 1010.1 |
| 20260904083524 | 46 | 360 | 0.0 | 0.0 | 0.00 | 0.00 | 0.00 | 99 | 1010.2 |
| 20260904082824 | 46 | 360 | 0.0 | 0.0 | 0.00 | 0.00 | 0.00 | 98 | 1010.1 |
| 20260904082324 | 46 | 360 | 0.0 | 0.0 | 0.00 | 0.00 | 0.00 | 98 | 1010.0 |
| 20260904081824 | 47 | 360 | 0.0 | 0.0 | 0.00 | 0.00 | 0.00 | 98 | 1009.9 |
| 20260904081325 | 47 | 360 | 0.0 | 0.0 | 0.00 | 0.00 | 0.00 | 98 | 1009.9 |
| 20260904080825 | 47 | 360 | 0.0 | 0.0 | 0.00 | 0.00 | 0.00 | 98 | 1009.9 |